Location: Aalen
(48.8330°N, 10.1000°E)
Time: 13:35:42
(UTC+02:00)

S-56A Canister/Altair - Visible Passes

Search period start: 03 August 2021 00:00
Search period end: 13 August 2021 00:00
Orbit: 631 x 2501 km, 38.9° (Epoch: 02 August)

Date Brightness Start Highest point End Pass type
(mag) Time Alt. Az. Time Alt. Az. Time Alt. Az.
03 Aug 11.0 22:21:08 10° W 22:30:20 20° SW 22:38:27 10° S visible
04 Aug 11.0 21:47:00 10° W 21:57:21 23° SW 22:06:32 10° S visible
05 Aug 11.1 21:13:05 10° W 21:24:18 27° SW 21:34:24 10° S visible
07 Aug 11.6 22:18:19 10° WSW 22:21:02 11° WSW 22:23:41 10° SW visible
08 Aug 11.5 21:42:14 10° WSW 21:48:07 13° SW 21:53:47 10° SSW visible
09 Aug 11.5 21:07:30 10° W 21:15:09 16° SW 21:22:33 10° SSW visible
